Franklin, VA

5:45 PM EDT on May 22, 2017 (GMT -0400)
Franklin Municipal-Rose

Weather History for KFKN - February, 2014

Change the Weather History Date:

Saturday, February 1, 2014

  Actual Average (KSFQ) Record (KSFQ)
Temperature  
Mean Temperature 37 °F -  
Max Temperature 55 °F 51 °F 82 °F (2002)
Min Temperature 19 °F 30 °F 9 °F (1965)
Degree Days  
Heating Degree Days 28    
Moisture  
Dew Point 25 °F    
Average Humidity 70    
Maximum Humidity 100    
Minimum Humidity 25    
Precipitation  
Precipitation 0.00 in - - ()
Sea Level Pressure  
Sea Level Pressure 30.20 in    
Wind  
Wind Speed 1 mph (SE)    
Max Wind Speed 7 mph    
Max Gust Speed -    
Visibility 8 miles    
Events      
Averages and records for this station are not official NWS values.
T = Trace of Precipitation, MM = Missing Value Source: NWS Daily Summary

Daily Weather History Graph

Daily Weather History Graph

Search for Another Location

Airport or City:

Trip Planner

Search our weather history database for the weather conditions in past years. The results will help you decide how hot, cold, wet, or windy it might be!

Date:

Astronomy

Feb. 01, 2014 Rise Set
Actual Time 7:09 AM EST 5:33 PM EST
Civil Twilight 6:42 AM EST 6:00 PM EST
Nautical Twilight 6:11 AM EST 6:31 PM EST
Astronomical Twilight 5:40 AM EST 7:01 PM EST
Moon 8:02 AM EST (2/1) 8:00 PM EST (2/1)
Length of Visible Light 11h 18m
Length of Day
10h 23m
Waxing Crescent, 5% of the Moon is Illuminated
Feb 1
Waxing Crescent
Feb 6
First Quarter
Feb 14
Full
Feb 22
Last Quarter
Mar 1
New

Hourly Weather History & Observations

Time (EST) Temp. Windchill Dew Point Humidity Pressure Visibility Wind Dir Wind Speed Gust Speed Precip Events Conditions
12:15 AM 23.0 °F - 19.4 °F 86% 30.22 in 10.0 mi Calm Calm - N/A   Clear
12:35 AM 24.8 °F - 23.0 °F 93% 30.22 in 10.0 mi Calm Calm - N/A   Clear
12:55 AM 23.0 °F - 21.2 °F 93% 30.22 in 10.0 mi Calm Calm - N/A   Clear
1:15 AM 24.8 °F - 23.0 °F 93% 30.22 in 10.0 mi Calm Calm - N/A   Clear
1:35 AM 21.2 °F - 21.2 °F 100% 30.22 in 10.0 mi Calm Calm - N/A   Clear
1:55 AM 24.8 °F - 23.0 °F 93% 30.23 in 10.0 mi Calm Calm - N/A   Clear
2:15 AM 23.0 °F - 21.2 °F 93% 30.23 in 10.0 mi Calm Calm - N/A   Clear
2:35 AM 23.0 °F - 21.2 °F 93% 30.23 in 10.0 mi Calm Calm - N/A   Clear
2:55 AM 23.0 °F - 21.2 °F 93% 30.23 in 10.0 mi Calm Calm - N/A   Clear
3:15 AM 23.0 °F - 21.2 °F 93% 30.23 in 10.0 mi Calm Calm - N/A   Clear
3:35 AM 21.2 °F - 21.2 °F 100% 30.24 in 10.0 mi Calm Calm - N/A   Clear
3:55 AM 21.2 °F - 21.2 °F 100% 30.24 in 10.0 mi Calm Calm - N/A   Clear
4:15 AM 21.2 °F - 21.2 °F 100% 30.24 in 10.0 mi Calm Calm - N/A   Clear
4:35 AM 21.2 °F - 19.4 °F 93% 30.24 in 10.0 mi Calm Calm - N/A   Clear
4:55 AM 21.2 °F - 19.4 °F 93% 30.25 in 10.0 mi Calm Calm - N/A   Clear
5:15 AM 21.2 °F - 21.2 °F 100% 30.25 in 10.0 mi Calm Calm - N/A   Clear
5:35 AM 21.2 °F - 19.4 °F 93% 30.25 in 10.0 mi Calm Calm - N/A   Clear
5:55 AM 21.2 °F - 19.4 °F 93% 30.25 in 10.0 mi Calm Calm - N/A   Clear
6:15 AM 19.4 °F - 17.6 °F 93% 30.26 in 10.0 mi Calm Calm - N/A   Clear
6:35 AM 19.4 °F - 19.4 °F 100% 30.26 in 10.0 mi Calm Calm - N/A   Clear
6:55 AM 19.4 °F - 19.4 °F 100% 30.26 in 10.0 mi Calm Calm - N/A   Clear
7:15 AM 19.4 °F - 19.4 °F 100% 30.27 in 10.0 mi Calm Calm - N/A   Clear
7:35 AM 19.4 °F - 19.4 °F 100% 30.27 in 10.0 mi Calm Calm - N/A   Clear
7:55 AM 21.2 °F - 21.2 °F 100% 30.29 in 10.0 mi Calm Calm - N/A   Clear
8:15 AM 23.0 °F - 21.2 °F 93% 30.29 in 10.0 mi Calm Calm - N/A   Clear
8:35 AM 26.6 °F - 23.0 °F 86% 30.29 in 10.0 mi Calm Calm - N/A   Clear
8:55 AM 28.4 °F - 24.8 °F 86% 30.30 in 10.0 mi Calm Calm - N/A   Clear
9:15 AM 30.2 °F - 26.6 °F 86% 30.30 in 10.0 mi Calm Calm - N/A   Clear
9:35 AM 35.6 °F - 28.4 °F 75% 30.29 in 10.0 mi Calm Calm - N/A   Clear
9:55 AM 39.2 °F - 30.2 °F 70% 30.29 in 10.0 mi Calm Calm - N/A   Clear
10:15 AM 41.0 °F - 32.0 °F 70% 30.29 in 10.0 mi Calm Calm - N/A   Clear
10:35 AM 44.6 °F - 32.0 °F 61% 30.28 in 10.0 mi Calm Calm - N/A   Clear
10:55 AM 46.4 °F - 30.2 °F 53% 30.28 in 10.0 mi Calm Calm - N/A   Clear
11:15 AM 48.2 °F - 26.6 °F 43% 30.26 in 10.0 mi East 3.5 mph - N/A   Clear
11:35 AM 48.2 °F - 24.8 °F 40% 30.25 in 10.0 mi East 4.6 mph - N/A   Clear
11:55 AM 51.8 °F - 21.2 °F 30% 30.24 in 10.0 mi East 3.5 mph - N/A   Clear
12:15 PM 51.8 °F - 21.2 °F 30% 30.23 in 10.0 mi East 6.9 mph - N/A   Clear
12:35 PM 51.8 °F - 23.0 °F 33% 30.22 in 10.0 mi SSE 5.8 mph - N/A   Clear
12:55 PM 53.6 °F - 21.2 °F 28% 30.21 in 10.0 mi Calm Calm - N/A   Clear
1:15 PM 53.6 °F - 21.2 °F 28% 30.20 in 10.0 mi SE 4.6 mph - N/A   Clear
1:35 PM 55.4 °F - 21.2 °F 26% 30.20 in 10.0 mi Calm Calm - N/A   Clear
1:55 PM 55.4 °F - 21.2 °F 26% 30.19 in 10.0 mi SSE 6.9 mph - N/A   Clear
2:15 PM 55.4 °F - 19.4 °F 25% 30.18 in 10.0 mi SE 3.5 mph - N/A   Clear
2:35 PM 55.4 °F - 23.0 °F 29% 30.18 in 10.0 mi SSE 6.9 mph - N/A   Scattered Clouds
2:55 PM 53.6 °F - 23.0 °F 30% 30.17 in 10.0 mi South 5.8 mph - N/A   Scattered Clouds
3:15 PM 53.6 °F - 24.8 °F 33% 30.16 in 10.0 mi Calm Calm - N/A   Mostly Cloudy
3:35 PM 53.6 °F - 26.6 °F 35% 30.17 in 10.0 mi SSE 3.5 mph - N/A   Mostly Cloudy
3:55 PM 53.6 °F - 24.8 °F 33% 30.15 in 10.0 mi Calm Calm - N/A   Overcast
4:15 PM 53.6 °F - 21.2 °F 28% 30.14 in 10.0 mi SE 3.5 mph - N/A   Scattered Clouds
4:35 PM 53.6 °F - 26.6 °F 35% 30.16 in 10.0 mi Calm Calm - N/A   Mostly Cloudy
4:55 PM 53.6 °F - 21.2 °F 28% 30.16 in 10.0 mi Calm Calm - N/A   Mostly Cloudy
5:15 PM 51.8 °F - 21.2 °F 30% 30.15 in 10.0 mi Calm Calm - N/A   Overcast
5:35 PM 48.2 °F - 30.2 °F 50% 30.15 in 10.0 mi Calm Calm - N/A   Overcast
5:55 PM 46.4 °F - 33.8 °F 62% 30.15 in 10.0 mi Calm Calm - N/A   Overcast
6:15 PM 48.2 °F - 32.0 °F 54% 30.15 in 10.0 mi Calm Calm - N/A   Overcast
6:35 PM 46.4 °F - 33.8 °F 62% 30.14 in 10.0 mi Calm Calm - N/A   Overcast
6:55 PM 44.6 °F - 37.4 °F 76% 30.14 in 10.0 mi Calm Calm - N/A   Overcast
7:15 PM 42.8 °F - 39.2 °F 87% 30.15 in 2.5 mi Calm Calm - N/A   Overcast
7:35 PM 42.8 °F - 41.0 °F 93% 30.14 in 1.8 mi Calm Calm - N/A   Overcast
7:55 PM 41.0 °F - 41.0 °F 100% 30.13 in 1.8 mi Calm Calm - N/A   Overcast
8:15 PM 41.0 °F - 41.0 °F 100% 30.12 in 1.2 mi Calm Calm - N/A   Overcast
8:35 PM 41.0 °F 39.0 °F - N/A% 30.12 in 0.8 mi SSE 3.5 mph - N/A   Overcast
8:55 PM 41.0 °F 38.0 °F - N/A% 30.12 in 1.2 mi South 4.6 mph - N/A   Overcast
9:15 PM 41.0 °F - - N/A% 30.11 in 2.5 mi Calm Calm - N/A   Overcast
9:35 PM 41.0 °F - - N/A% 30.10 in 3.0 mi Calm Calm - N/A   Overcast
9:55 PM 41.0 °F - - N/A% 30.10 in 2.0 mi Calm Calm - N/A   Overcast
10:15 PM 41.0 °F 39.0 °F - N/A% 30.10 in 1.8 mi South 3.5 mph - N/A   Overcast
10:35 PM 41.0 °F - - N/A% 30.10 in 2.5 mi Calm Calm - N/A   Overcast
10:55 PM 41.0 °F - - N/A% 30.10 in 1.2 mi Calm Calm - N/A   Overcast
11:15 PM 41.0 °F - - N/A% 30.09 in 1.5 mi Calm Calm - N/A   Overcast
11:35 PM 41.0 °F - - N/A% 30.08 in 2.0 mi Calm Calm - N/A   Overcast
11:55 PM 42.8 °F 41.1 °F - N/A% 30.08 in 3.0 mi SSW 3.5 mph - N/A   Overcast